Terminal Aerodrome Forecast
Issued by NWS Twin Cities, MN

Home | Current Version | Previous Version | Graphics & Text | Print | Product List | Glossary On
Versions: 1 2 3 4 5 6 7 8 9 10 11 12 13 14 15 16 17
000
FTUS43 KMPX 161120
TAFEAU
TAF
KEAU 161120Z 1612/1712 07005KT P6SM OVC008
     FM161500 08006KT P6SM SCT010 OVC060
     FM170100 09004KT P6SM OVC015
     FM171000 VRB03KT 6SM BR OVC008=

USA.gov is the U.S. government's official web portal to all federal, state and local government web resources and services.